X

Important NEWS



New Hub Active

Miami is our new hub! Old members can request transfer via hr@dlxairways.net

Thank you very much and have nice flight.


Deluxe Airways.

X

Tours



Hello again, we created one nice test tour for all pilots to attend. also this is ment to be testing of our tour system

Available Tours

If you find some issues please inform us.

Thank you very much and have nice flight.


Deluxe Airways.

 METAR AND TAF INFORMATION
ArrayMETAR FOR GCXO
16730023 3 GCXO 291400Z 29016KT 260V320 9999 FEW012 20/15 Q1017 NOSIG GCXO 2020-05-29T14:00:00Z 28.48 -16.35 20.0 15.0 290 16 6.21 30.029528 TRUE VFR METAR 632.0 GCXO 291330Z 29016KT 9999 FEW020 20/14 Q1017 NOSIG GCXO 2020-05-29T13:30:00Z 28.48 -16.35 20.0 14.0 290 16 6.21 30.029528 TRUE VFR METAR 632.0 GCXO 291300Z 28012KT 250V320 9999 FEW020 20/14 Q1017 NOSIG GCXO 2020-05-29T13:00:00Z 28.48 -16.35 20.0 14.0 280 12 6.21 30.029528 TRUE VFR METAR 632.0 GCXO 291230Z 29012KT 260V330 9999 FEW020 20/14 Q1018 NOSIG GCXO 2020-05-29T12:30:00Z 28.48 -16.35 20.0 14.0 290 12 6.21 30.059055 TRUE VFR METAR 632.0

 AIRPORT MAP

 RUNWAY INFORMATION
Runway 12 Runway length 11155 ft Runway width 148 ft
Runway elevation 2060 ft Runway displaced threshold 0 ft Runway heading 111
Runway 30 Runway length 11155 ft Runway width 148 ft
Runway elevation 2002 ft Runway displaced threshold 0 ft Runway heading 291

 AIRPORT FREQUENCIES
Type APP Name APP Frequency 119.7 MHZ
Type ATIS Name ATIS Frequency 118.575 MHZ
Type GND Name GND Frequency 121.7 MHZ
Type TWR Name TWR Frequency 118.7 MHZ

 AIRPORT NEAR NAVIGATION AIDS
Type VOR-DME Name Tenerife Norte Frequency 117700 KHZ
Type NDB Name Tenerife Norte Frequency 410 KHZ



Powered by Virtual Airlines Manager [v2.6.2]

Template code change by DeluxeAir